Time,TemperatureF,DewpointF,PressureIn,WindDirection,WindDirectionDegrees,WindSpeedMPH,WindSpeedGustMPH,Humidity,HourlyPrecipIn,Conditions,Clouds,dailyrainin,SoftwareType,DateUTC
2013-08-31 00:00:00,68.5,54.1,29.56,WSW,246,0.0,0.0,60,0.00,,,0.00,VWS V14.00,2013-08-31 04:00:00,
2013-08-31 00:01:00,68.5,54.1,29.56,WSW,246,0.0,0.0,60,0.00,,,0.00,VWS V14.00,2013-08-31 04:01:00,
2013-08-31 00:06:00,68.4,54.4,29.56,WSW,246,0.0,0.0,61,0.00,,,0.00,VWS V14.00,2013-08-31 04:06:00,
2013-08-31 00:11:00,68.4,54.4,29.56,WSW,246,0.0,0.0,61,0.00,,,0.00,VWS V14.00,2013-08-31 04:11:00,
2013-08-31 00:16:00,68.2,54.7,29.56,WSW,246,0.0,0.0,62,0.00,,,0.00,VWS V14.00,2013-08-31 04:16:00,
2013-08-31 00:21:00,68.2,54.7,29.56,WSW,246,0.0,0.0,62,0.00,,,0.00,VWS V14.00,2013-08-31 04:21:00,
2013-08-31 00:26:00,68.2,54.7,29.56,WSW,246,0.0,0.0,62,0.00,,,0.00,VWS V14.00,2013-08-31 04:26:00,
2013-08-31 00:31:00,68.0,55.0,29.56,WSW,246,0.0,0.0,63,0.00,,,0.00,VWS V14.00,2013-08-31 04:31:00,
2013-08-31 00:36:00,67.8,54.8,29.56,WSW,246,0.0,0.0,63,0.00,,,0.00,VWS V14.00,2013-08-31 04:36:00,
2013-08-31 00:41:00,67.6,54.6,29.56,WSW,246,0.0,0.0,63,0.00,,,0.00,VWS V14.00,2013-08-31 04:41:00,
2013-08-31 00:46:00,67.6,55.0,29.56,WSW,246,0.0,0.0,64,0.00,,,0.00,VWS V14.00,2013-08-31 04:46:00,
2013-08-31 00:51:00,67.6,55.0,29.56,WSW,246,0.0,0.0,64,0.00,,,0.00,VWS V14.00,2013-08-31 04:51:00,
2013-08-31 00:56:00,67.6,55.0,29.56,WSW,246,0.0,0.0,64,0.00,,,0.00,VWS V14.00,2013-08-31 04:56:00,
2013-08-31 01:01:00,67.5,55.3,29.56,WSW,246,0.0,0.0,65,0.00,,,0.00,VWS V14.00,2013-08-31 05:01:00,
2013-08-31 01:06:00,67.5,55.3,29.56,WSW,246,0.0,0.0,65,0.00,,,0.00,VWS V14.00,2013-08-31 05:06:00,
2013-08-31 01:11:00,67.3,55.1,29.56,WSW,246,0.0,0.0,65,0.00,,,0.00,VWS V14.00,2013-08-31 05:11:00,
2013-08-31 01:16:00,67.3,55.1,29.56,WSW,246,0.0,0.0,65,0.00,,,0.00,VWS V14.00,2013-08-31 05:16:00,
2013-08-31 01:21:00,67.1,55.0,29.56,WSW,246,0.0,0.0,65,0.00,,,0.00,VWS V14.00,2013-08-31 05:21:00,
2013-08-31 01:26:00,67.1,55.4,29.56,WSW,246,0.0,0.0,66,0.00,,,0.00,VWS V14.00,2013-08-31 05:26:00,
2013-08-31 01:31:00,67.1,55.4,29.56,WSW,246,0.0,0.0,66,0.00,,,0.00,VWS V14.00,2013-08-31 05:31:00,
2013-08-31 01:36:00,67.1,55.8,29.56,WSW,246,0.0,0.0,67,0.00,,,0.00,VWS V14.00,2013-08-31 05:36:00,
2013-08-31 01:41:00,67.1,55.8,29.56,WSW,246,0.0,0.0,67,0.00,,,0.00,VWS V14.00,2013-08-31 05:41:00,
2013-08-31 01:46:00,67.1,55.8,29.56,WSW,246,0.0,0.0,67,0.00,,,0.00,VWS V14.00,2013-08-31 05:46:00,
2013-08-31 01:51:00,66.9,55.6,29.56,WSW,246,0.0,0.0,67,0.00,,,0.00,VWS V14.00,2013-08-31 05:51:00,
2013-08-31 01:56:00,66.7,55.5,29.56,WSW,246,0.0,0.0,67,0.00,,,0.00,VWS V14.00,2013-08-31 05:56:00,
2013-08-31 02:01:00,66.7,55.8,29.56,WSW,246,0.0,0.0,68,0.00,,,0.00,VWS V14.00,2013-08-31 06:01:00,
2013-08-31 02:06:00,66.7,55.8,29.56,WSW,246,0.0,0.0,68,0.00,,,0.00,VWS V14.00,2013-08-31 06:06:00,
2013-08-31 02:11:00,66.7,55.8,29.56,WSW,246,0.0,0.0,68,0.00,,,0.00,VWS V14.00,2013-08-31 06:11:00,
2013-08-31 02:16:00,66.7,55.8,29.56,WSW,246,0.0,0.0,68,0.00,,,0.00,VWS V14.00,2013-08-31 06:16:00,
2013-08-31 02:21:00,66.6,55.7,29.56,WSW,246,0.0,0.0,68,0.00,,,0.00,VWS V14.00,2013-08-31 06:21:00,
2013-08-31 02:26:00,66.6,55.7,29.56,WSW,246,0.0,0.0,68,0.00,,,0.00,VWS V14.00,2013-08-31 06:26:00,
2013-08-31 02:31:00,66.6,56.1,29.56,WSW,246,0.0,0.0,69,0.00,,,0.00,VWS V14.00,2013-08-31 06:31:00,
2013-08-31 02:36:00,66.4,55.9,29.56,WSW,246,0.0,0.0,69,0.00,,,0.00,VWS V14.00,2013-08-31 06:36:00,
2013-08-31 02:41:00,66.4,55.9,29.53,WSW,246,0.0,0.0,69,0.00,,,0.00,VWS V14.00,2013-08-31 06:41:00,
2013-08-31 02:46:00,66.4,55.9,29.53,WSW,246,0.0,0.0,69,0.00,,,0.00,VWS V14.00,2013-08-31 06:46:00,
2013-08-31 02:51:00,66.2,55.7,29.53,WSW,246,0.0,0.0,69,0.00,,,0.00,VWS V14.00,2013-08-31 06:51:00,
2013-08-31 02:56:00,66.2,55.7,29.56,WSW,246,0.0,0.0,69,0.00,,,0.00,VWS V14.00,2013-08-31 06:56:00,
2013-08-31 03:01:00,66.2,55.7,29.56,WSW,246,0.0,0.0,69,0.00,,,0.00,VWS V14.00,2013-08-31 07:01:00,
2013-08-31 03:06:00,66.2,56.1,29.56,WSW,246,0.0,0.0,70,0.00,,,0.00,VWS V14.00,2013-08-31 07:06:00,
2013-08-31 03:11:00,66.2,56.1,29.56,WSW,246,0.0,0.0,70,0.00,,,0.00,VWS V14.00,2013-08-31 07:11:00,
2013-08-31 03:16:00,66.2,56.1,29.56,WSW,246,0.0,0.0,70,0.00,,,0.00,VWS V14.00,2013-08-31 07:16:00,
2013-08-31 03:21:00,66.2,56.1,29.56,WSW,246,0.0,0.0,70,0.00,,,0.00,VWS V14.00,2013-08-31 07:21:00,
2013-08-31 03:26:00,66.2,56.1,29.56,WSW,246,0.0,0.0,70,0.00,,,0.00,VWS V14.00,2013-08-31 07:26:00,
2013-08-31 03:31:00,66.0,56.4,29.56,WSW,246,0.0,0.0,71,0.00,,,0.00,VWS V14.00,2013-08-31 07:31:00,
2013-08-31 03:36:00,65.8,56.2,29.56,WSW,246,0.0,0.0,71,0.00,,,0.00,VWS V14.00,2013-08-31 07:36:00,
2013-08-31 03:41:00,65.7,55.6,29.56,WSW,246,0.0,0.0,70,0.00,,,0.00,VWS V14.00,2013-08-31 07:41:00,
2013-08-31 03:46:00,65.7,56.0,29.56,WSW,246,0.0,0.0,71,0.00,,,0.00,VWS V14.00,2013-08-31 07:46:00,
2013-08-31 03:51:00,65.8,56.2,29.56,WSW,246,0.0,0.0,71,0.00,,,0.00,VWS V14.00,2013-08-31 07:51:00,
2013-08-31 03:56:00,65.8,56.2,29.56,WSW,246,0.0,0.0,71,0.00,,,0.00,VWS V14.00,2013-08-31 07:56:00,
2013-08-31 04:01:00,65.8,56.2,29.56,WSW,246,0.0,0.0,71,0.00,,,0.00,VWS V14.00,2013-08-31 08:01:00,
2013-08-31 04:06:00,65.8,56.6,29.56,WSW,246,0.0,0.0,72,0.00,,,0.00,VWS V14.00,2013-08-31 08:06:00,
2013-08-31 04:11:00,66.0,56.7,29.56,WSW,246,0.0,0.0,72,0.00,,,0.00,VWS V14.00,2013-08-31 08:11:00,
2013-08-31 04:16:00,66.0,56.7,29.56,WSW,246,0.0,0.0,72,0.00,,,0.00,VWS V14.00,2013-08-31 08:16:00,
2013-08-31 04:21:00,66.0,56.7,29.56,WSW,246,0.0,0.0,72,0.00,,,0.00,VWS V14.00,2013-08-31 08:21:00,
2013-08-31 04:26:00,66.0,56.7,29.56,WSW,246,0.0,0.0,72,0.00,,,0.00,VWS V14.00,2013-08-31 08:26:00,
2013-08-31 04:31:00,66.0,56.7,29.56,WSW,251,0.0,0.0,72,0.00,,,0.00,VWS V14.00,2013-08-31 08:31:00,
2013-08-31 04:36:00,65.8,56.6,29.56,WSW,251,0.0,0.0,72,0.00,,,0.00,VWS V14.00,2013-08-31 08:36:00,
2013-08-31 04:41:00,65.8,56.6,29.56,WSW,251,0.0,0.0,72,0.00,,,0.00,VWS V14.00,2013-08-31 08:41:00,
2013-08-31 04:46:00,65.8,56.6,29.56,WSW,251,0.0,0.0,72,0.00,,,0.00,VWS V14.00,2013-08-31 08:46:00,
2013-08-31 04:51:00,65.8,56.6,29.56,WSW,251,0.0,0.0,72,0.00,,,0.00,VWS V14.00,2013-08-31 08:51:00,
2013-08-31 04:56:00,65.8,56.6,29.56,WSW,251,0.0,0.0,72,0.00,,,0.00,VWS V14.00,2013-08-31 08:56:00,
2013-08-31 05:01:00,65.8,56.6,29.56,WSW,251,0.0,0.0,72,0.00,,,0.00,VWS V14.00,2013-08-31 09:01:00,
2013-08-31 05:05:00,66.0,57.1,29.56,WSW,251,0.0,0.0,73,0.00,,,0.00,VWS V14.00,2013-08-31 09:05:00,
2013-08-31 05:10:00,66.2,57.3,29.56,WSW,251,0.0,0.0,73,0.00,,,0.00,VWS V14.00,2013-08-31 09:10:00,
2013-08-31 05:15:00,66.0,57.1,29.56,WSW,251,0.0,0.0,73,0.00,,,0.00,VWS V14.00,2013-08-31 09:15:00,
2013-08-31 05:20:00,66.0,57.1,29.56,WSW,251,0.0,0.0,73,0.00,,,0.00,VWS V14.00,2013-08-31 09:20:00,
2013-08-31 05:25:00,66.0,57.5,29.56,WSW,251,0.0,0.0,74,0.00,,,0.00,VWS V14.00,2013-08-31 09:25:00,
2013-08-31 05:30:00,65.8,57.0,29.56,WSW,251,0.0,0.0,73,0.00,,,0.00,VWS V14.00,2013-08-31 09:30:00,
2013-08-31 05:35:00,65.7,56.8,29.56,WSW,251,0.0,0.0,73,0.00,,,0.00,VWS V14.00,2013-08-31 09:35:00,
2013-08-31 05:40:00,65.7,56.8,29.56,WSW,251,0.0,0.0,73,0.00,,,0.00,VWS V14.00,2013-08-31 09:40:00,
2013-08-31 05:45:00,65.7,56.8,29.56,WSW,251,0.0,0.0,73,0.00,,,0.00,VWS V14.00,2013-08-31 09:45:00,
2013-08-31 05:50:00,65.7,57.2,29.56,WSW,251,0.0,0.0,74,0.00,,,0.00,VWS V14.00,2013-08-31 09:50:00,
2013-08-31 05:55:00,65.7,57.2,29.56,WSW,251,0.0,0.0,74,0.00,,,0.00,VWS V14.00,2013-08-31 09:55:00,
2013-08-31 06:00:00,65.8,57.3,29.56,WSW,251,0.0,0.0,74,0.00,,,0.00,VWS V14.00,2013-08-31 10:00:00,
2013-08-31 06:05:00,66.0,57.9,29.56,WSW,251,0.0,0.0,75,0.00,,,0.00,VWS V14.00,2013-08-31 10:05:00,
2013-08-31 06:10:00,65.8,57.3,29.56,WSW,251,0.0,0.0,74,0.00,,,0.00,VWS V14.00,2013-08-31 10:10:00,
2013-08-31 06:15:00,65.8,57.7,29.56,WSW,251,0.0,0.0,75,0.00,,,0.00,VWS V14.00,2013-08-31 10:15:00,
2013-08-31 06:20:00,65.7,57.5,29.56,WSW,251,0.0,0.0,75,0.00,,,0.00,VWS V14.00,2013-08-31 10:20:00,
2013-08-31 06:25:00,65.7,57.5,29.56,WSW,251,0.0,0.0,75,0.00,,,0.00,VWS V14.00,2013-08-31 10:25:00,
2013-08-31 06:30:00,65.7,57.5,29.56,WSW,251,0.0,0.0,75,0.00,,,0.00,VWS V14.00,2013-08-31 10:30:00,
2013-08-31 06:35:00,65.7,57.5,29.56,WSW,251,0.0,0.0,75,0.00,,,0.00,VWS V14.00,2013-08-31 10:35:00,
2013-08-31 06:40:00,65.7,57.5,29.56,WSW,251,0.0,0.0,75,0.00,,,0.00,VWS V14.00,2013-08-31 10:40:00,
2013-08-31 06:45:00,65.7,57.5,29.56,WSW,251,0.0,0.0,75,0.00,,,0.00,VWS V14.00,2013-08-31 10:45:00,
2013-08-31 06:50:00,65.7,57.9,29.56,WSW,251,0.0,0.0,76,0.00,,,0.00,VWS V14.00,2013-08-31 10:50:00,
2013-08-31 06:55:00,65.7,57.5,29.56,WSW,252,0.0,0.0,75,0.00,,,0.00,VWS V14.00,2013-08-31 10:55:00,
2013-08-31 07:00:00,65.5,57.4,29.56,WSW,252,0.0,0.0,75,0.00,,,0.00,VWS V14.00,2013-08-31 11:00:00,
2013-08-31 07:05:00,65.5,57.4,29.56,WSW,252,0.0,0.0,75,0.00,,,0.00,VWS V14.00,2013-08-31 11:05:00,
2013-08-31 07:10:00,65.5,57.7,29.56,WSW,252,0.0,0.0,76,0.00,,,0.00,VWS V14.00,2013-08-31 11:10:00,
2013-08-31 07:15:00,65.5,57.7,29.56,WSW,252,0.0,0.0,76,0.00,,,0.00,VWS V14.00,2013-08-31 11:15:00,
2013-08-31 07:20:00,65.5,57.7,29.56,WSW,252,0.0,0.0,76,0.00,,,0.00,VWS V14.00,2013-08-31 11:20:00,
2013-08-31 07:25:00,65.7,57.9,29.56,WSW,252,0.0,0.0,76,0.00,,,0.00,VWS V14.00,2013-08-31 11:25:00,
2013-08-31 07:30:00,65.7,57.9,29.56,WSW,252,0.0,0.0,76,0.00,,,0.00,VWS V14.00,2013-08-31 11:30:00,
2013-08-31 07:35:00,65.7,57.9,29.56,WSW,252,0.0,0.0,76,0.00,,,0.00,VWS V14.00,2013-08-31 11:35:00,
2013-08-31 07:40:00,66.0,58.6,29.56,WSW,252,0.0,0.0,77,0.00,,,0.00,VWS V14.00,2013-08-31 11:40:00,
2013-08-31 07:45:00,66.4,59.3,29.56,WSW,252,0.0,0.0,78,0.00,,,0.00,VWS V14.00,2013-08-31 11:45:00,
2013-08-31 07:50:00,66.6,59.1,29.56,SSW,205,0.0,0.0,77,0.00,,,0.00,VWS V14.00,2013-08-31 11:50:00,
2013-08-31 07:55:00,66.6,59.1,29.56,WSW,246,0.0,0.0,77,0.00,,,0.00,VWS V14.00,2013-08-31 11:55:00,
2013-08-31 08:00:00,66.7,59.7,29.56,WSW,237,0.0,0.0,78,0.00,,,0.00,VWS V14.00,2013-08-31 12:00:00,
2013-08-31 08:05:00,67.5,61.1,29.56,SW,235,2.7,2.7,80,0.00,,,0.00,VWS V14.00,2013-08-31 12:05:00,
2013-08-31 08:10:00,68.0,61.6,29.56,SW,235,0.0,3.1,80,0.00,,,0.00,VWS V14.00,2013-08-31 12:10:00,
2013-08-31 08:15:00,68.5,62.5,29.56,WSW,242,0.0,0.0,81,0.00,,,0.00,VWS V14.00,2013-08-31 12:15:00,
2013-08-31 08:20:00,68.9,62.8,29.56,WSW,248,2.7,3.1,81,0.00,,,0.00,VWS V14.00,2013-08-31 12:20:00,
2013-08-31 08:25:00,69.3,63.2,29.56,WSW,244,3.6,3.6,81,0.00,,,0.00,VWS V14.00,2013-08-31 12:25:00,
2013-08-31 08:30:00,69.4,63.7,29.56,SSW,207,2.2,2.7,82,0.00,,,0.00,VWS V14.00,2013-08-31 12:30:00,
2013-08-31 08:35:00,70.0,64.2,29.56,West,265,2.7,2.7,82,0.00,,,0.00,VWS V14.00,2013-08-31 12:35:00,
2013-08-31 08:40:00,70.2,64.8,29.56,West,265,2.7,5.4,83,0.00,,,0.00,VWS V14.00,2013-08-31 12:40:00,
2013-08-31 08:45:00,70.7,65.3,29.56,WSW,241,4.0,4.0,83,0.00,,,0.00,VWS V14.00,2013-08-31 12:45:00,
2013-08-31 08:50:00,71.1,65.6,29.56,WSW,252,4.0,4.0,83,0.00,,,0.00,VWS V14.00,2013-08-31 12:50:00,
2013-08-31 08:55:00,71.2,65.8,29.56,WSW,245,3.1,3.1,83,0.00,,,0.00,VWS V14.00,2013-08-31 12:55:00,
2013-08-31 09:00:00,71.6,66.2,29.56,WSW,253,5.4,5.4,83,0.00,,,0.00,VWS V14.00,2013-08-31 13:00:00,
2013-08-31 09:05:00,71.8,66.3,29.56,WNW,298,2.7,2.7,83,0.00,,,0.00,VWS V14.00,2013-08-31 13:05:00,
2013-08-31 09:10:00,72.1,66.7,29.56,West,266,4.9,4.9,83,0.00,,,0.00,VWS V14.00,2013-08-31 13:10:00,
2013-08-31 09:15:00,72.3,65.8,29.56,WSW,255,4.9,4.9,80,0.00,,,0.00,VWS V14.00,2013-08-31 13:15:00,
2013-08-31 09:20:00,72.7,65.1,29.56,WSW,241,3.6,3.6,77,0.00,,,0.00,VWS V14.00,2013-08-31 13:20:00,
2013-08-31 09:25:00,73.0,63.9,29.56,SW,225,3.6,3.6,73,0.00,,,0.00,VWS V14.00,2013-08-31 13:25:00,
2013-08-31 09:30:00,73.4,63.0,29.56,WSW,250,3.6,3.6,70,0.00,,,0.00,VWS V14.00,2013-08-31 13:30:00,
2013-08-31 09:35:00,73.8,62.1,29.56,WSW,240,3.1,3.1,67,0.00,,,0.00,VWS V14.00,2013-08-31 13:35:00,
2013-08-31 09:40:00,74.3,61.3,29.56,SW,231,0.0,0.0,64,0.00,,,0.00,VWS V14.00,2013-08-31 13:40:00,
2013-08-31 09:45:00,74.7,59.9,29.56,WSW,257,5.4,5.4,60,0.00,,,0.00,VWS V14.00,2013-08-31 13:45:00,
2013-08-31 09:50:00,75.0,59.7,29.56,WSW,244,2.2,2.2,59,0.00,,,0.00,VWS V14.00,2013-08-31 13:50:00,
2013-08-31 09:55:00,75.2,57.9,29.56,WSW,245,3.1,3.1,55,0.00,,,0.00,VWS V14.00,2013-08-31 13:55:00,
2013-08-31 10:00:00,75.7,57.9,29.56,WSW,238,0.0,3.1,54,0.00,,,0.00,VWS V14.00,2013-08-31 14:00:00,
2013-08-31 10:05:00,75.7,56.9,29.56,WSW,256,3.6,3.6,52,0.00,,,0.00,VWS V14.00,2013-08-31 14:05:00,
2013-08-31 10:10:00,76.3,56.3,29.56,SW,235,2.2,2.2,50,0.00,,,0.00,VWS V14.00,2013-08-31 14:10:00,
2013-08-31 10:15:00,76.5,54.8,29.56,WNW,292,3.1,3.1,47,0.00,,,0.00,VWS V14.00,2013-08-31 14:15:00,
2013-08-31 10:20:00,77.0,54.7,29.56,SSW,200,2.7,2.7,46,0.00,,,0.00,VWS V14.00,2013-08-31 14:20:00,
2013-08-31 10:25:00,77.5,55.2,29.59,West,270,3.6,3.6,46,0.00,,,0.00,VWS V14.00,2013-08-31 14:25:00,
2013-08-31 10:30:00,77.9,54.9,29.59,WNW,294,2.2,2.2,45,0.00,,,0.00,VWS V14.00,2013-08-31 14:30:00,
2013-08-31 10:35:00,78.4,55.4,29.59,WSW,257,3.1,3.1,45,0.00,,,0.00,VWS V14.00,2013-08-31 14:35:00,
2013-08-31 10:40:00,79.0,54.6,29.59,WSW,255,4.9,5.4,43,0.00,,,0.00,VWS V14.00,2013-08-31 14:40:00,
2013-08-31 10:45:00,79.5,55.1,29.59,WSW,257,3.6,3.6,43,0.00,,,0.00,VWS V14.00,2013-08-31 14:45:00,
2013-08-31 10:50:00,79.7,53.9,29.59,SW,232,3.6,3.6,41,0.00,,,0.00,VWS V14.00,2013-08-31 14:50:00,
2013-08-31 10:55:00,79.9,52.7,29.59,South,175,3.6,3.6,39,0.00,,,0.00,VWS V14.00,2013-08-31 14:55:00,
2013-08-31 11:00:00,79.9,52.7,29.59,WNW,285,0.0,2.2,39,0.00,,,0.00,VWS V14.00,2013-08-31 15:00:00,
2013-08-31 11:05:00,80.1,53.6,29.59,WSW,239,4.0,4.0,40,0.00,,,0.00,VWS V14.00,2013-08-31 15:05:00,
2013-08-31 11:10:00,80.2,53.1,29.56,West,264,2.2,5.8,39,0.00,,,0.00,VWS V14.00,2013-08-31 15:10:00,
2013-08-31 11:15:00,80.6,52.7,29.56,WSW,242,5.4,5.4,38,0.00,,,0.00,VWS V14.00,2013-08-31 15:15:00,
2013-08-31 11:20:00,81.0,51.5,29.56,WSW,238,2.7,6.3,36,0.00,,,0.00,VWS V14.00,2013-08-31 15:20:00,
2013-08-31 11:25:00,81.3,51.8,29.59,WSW,240,3.6,3.6,36,0.00,,,0.00,VWS V14.00,2013-08-31 15:25:00,
2013-08-31 11:30:00,81.9,53.1,29.59,West,263,5.8,5.8,37,0.00,,,0.00,VWS V14.00,2013-08-31 15:30:00,
2013-08-31 11:35:00,82.2,52.6,29.59,WSW,252,5.4,5.8,36,0.00,,,0.00,VWS V14.00,2013-08-31 15:35:00,
2013-08-31 11:40:00,82.6,51.4,29.56,SSW,200,5.8,5.8,34,0.00,,,0.00,VWS V14.00,2013-08-31 15:40:00,
2013-08-31 11:45:00,82.8,51.6,29.56,SSW,201,3.1,3.1,34,0.00,,,0.00,VWS V14.00,2013-08-31 15:45:00,
2013-08-31 11:50:00,82.8,51.6,29.56,West,278,3.6,3.6,34,0.00,,,0.00,VWS V14.00,2013-08-31 15:50:00,
2013-08-31 11:55:00,82.9,51.7,29.56,SW,227,3.6,3.6,34,0.00,,,0.00,VWS V14.00,2013-08-31 15:55:00,
2013-08-31 12:00:00,83.1,51.9,29.56,SSW,205,0.0,0.0,34,0.00,,,0.00,VWS V14.00,2013-08-31 16:00:00,
2013-08-31 12:05:00,83.3,52.0,29.56,West,262,8.1,8.1,34,0.00,,,0.00,VWS V14.00,2013-08-31 16:05:00,
2013-08-31 12:10:00,83.5,51.4,29.56,WSW,249,0.0,4.0,33,0.00,,,0.00,VWS V14.00,2013-08-31 16:10:00,
2013-08-31 12:15:00,83.8,51.7,29.56,SW,224,5.4,5.4,33,0.00,,,0.00,VWS V14.00,2013-08-31 16:15:00,
2013-08-31 12:20:00,84.0,51.8,29.56,WSW,245,5.4,5.4,33,0.00,,,0.00,VWS V14.00,2013-08-31 16:20:00,
2013-08-31 12:25:00,84.0,51.8,29.56,WSW,255,5.4,5.4,33,0.00,,,0.00,VWS V14.00,2013-08-31 16:25:00,
2013-08-31 12:30:00,84.0,51.8,29.56,NW,312,3.6,5.8,33,0.00,,,0.00,VWS V14.00,2013-08-31 16:30:00,
2013-08-31 12:35:00,84.2,51.2,29.56,WSW,250,5.4,5.4,32,0.00,,,0.00,VWS V14.00,2013-08-31 16:35:00,
2013-08-31 12:40:00,84.2,51.2,29.56,WSW,238,3.6,3.6,32,0.00,,,0.00,VWS V14.00,2013-08-31 16:40:00,
2013-08-31 12:45:00,84.4,51.3,29.56,WSW,257,6.3,6.3,32,0.00,,,0.00,VWS V14.00,2013-08-31 16:45:00,
2013-08-31 12:50:00,84.2,51.2,29.56,SW,235,5.4,5.4,32,0.00,,,0.00,VWS V14.00,2013-08-31 16:50:00,
2013-08-31 12:55:00,84.2,51.2,29.53,WSW,243,3.6,3.6,32,0.00,,,0.00,VWS V14.00,2013-08-31 16:55:00,
2013-08-31 13:00:00,84.6,51.5,29.53,South,177,3.6,4.0,32,0.00,,,0.00,VWS V14.00,2013-08-31 17:00:00,
2013-08-31 13:05:00,84.7,51.6,29.53,WSW,246,5.8,5.8,32,0.00,,,0.00,VWS V14.00,2013-08-31 17:05:00,
2013-08-31 13:10:00,85.1,51.1,29.53,WSW,240,3.1,4.0,31,0.00,,,0.00,VWS V14.00,2013-08-31 17:10:00,
2013-08-31 13:15:00,85.3,51.2,29.53,SW,236,4.9,5.4,31,0.00,,,0.00,VWS V14.00,2013-08-31 17:15:00,
2013-08-31 13:20:00,85.3,51.2,29.53,SW,214,3.1,5.4,31,0.00,,,0.00,VWS V14.00,2013-08-31 17:20:00,
2013-08-31 13:25:00,85.3,51.2,29.53,WSW,246,4.0,4.9,31,0.00,,,0.00,VWS V14.00,2013-08-31 17:25:00,
2013-08-31 13:30:00,85.6,51.6,29.53,WSW,245,2.7,2.7,31,0.00,,,0.00,VWS V14.00,2013-08-31 17:30:00,
2013-08-31 13:35:00,85.8,51.7,29.53,WSW,246,3.1,3.6,31,0.00,,,0.00,VWS V14.00,2013-08-31 17:35:00,
2013-08-31 13:40:00,85.8,51.7,29.53,West,278,3.6,5.4,31,0.00,,,0.00,VWS V14.00,2013-08-31 17:40:00,
2013-08-31 13:45:00,85.8,51.7,29.53,WSW,238,4.0,4.0,31,0.00,,,0.00,VWS V14.00,2013-08-31 17:45:00,
2013-08-31 13:50:00,85.8,51.7,29.53,NNW,340,2.7,4.0,31,0.00,,,0.00,VWS V14.00,2013-08-31 17:50:00,
2013-08-31 13:55:00,86.0,51.9,29.53,West,272,0.0,3.6,31,0.00,,,0.00,VWS V14.00,2013-08-31 17:55:00,
2013-08-31 14:00:00,86.0,51.0,29.53,SW,225,4.9,4.9,30,0.00,,,0.00,VWS V14.00,2013-08-31 18:00:00,
2013-08-31 14:05:00,86.0,51.9,29.53,SW,224,4.0,4.0,31,0.00,,,0.00,VWS V14.00,2013-08-31 18:05:00,
2013-08-31 14:10:00,86.2,51.1,29.53,WSW,239,3.6,3.6,30,0.00,,,0.00,VWS V14.00,2013-08-31 18:10:00,
2013-08-31 14:15:00,86.5,51.5,29.53,WSW,237,2.2,2.7,30,0.00,,,0.00,VWS V14.00,2013-08-31 18:15:00,
2013-08-31 14:20:00,86.9,51.8,29.53,WNW,295,3.1,3.1,30,0.00,,,0.00,VWS V14.00,2013-08-31 18:20:00,
2013-08-31 14:25:00,86.9,51.8,29.53,WSW,239,3.1,5.4,30,0.00,,,0.00,VWS V14.00,2013-08-31 18:25:00,
2013-08-31 14:30:00,86.9,51.8,29.53,SW,222,3.6,4.0,30,0.00,,,0.00,VWS V14.00,2013-08-31 18:30:00,
2013-08-31 14:35:00,86.9,51.8,29.53,SSW,208,3.1,3.1,30,0.00,,,0.00,VWS V14.00,2013-08-31 18:35:00,
2013-08-31 14:40:00,86.9,51.8,29.53,WSW,251,3.1,4.0,30,0.00,,,0.00,VWS V14.00,2013-08-31 18:40:00,
2013-08-31 14:45:00,86.7,51.6,29.53,WSW,258,3.6,4.0,30,0.00,,,0.00,VWS V14.00,2013-08-31 18:45:00,
2013-08-31 14:50:00,86.5,51.5,29.53,SW,216,3.1,3.1,30,0.00,,,0.00,VWS V14.00,2013-08-31 18:50:00,
2013-08-31 14:55:00,86.5,51.5,29.50,SSE,158,3.1,3.1,30,0.00,,,0.00,VWS V14.00,2013-08-31 18:55:00,
2013-08-31 15:00:00,86.5,51.5,29.50,SW,221,6.3,6.3,30,0.00,,,0.00,VWS V14.00,2013-08-31 19:00:00,
2013-08-31 15:05:00,86.4,51.3,29.50,SSW,208,2.7,2.7,30,0.00,,,0.00,VWS V14.00,2013-08-31 19:05:00,
2013-08-31 15:10:00,86.4,51.3,29.50,West,271,3.1,3.1,30,0.00,,,0.00,VWS V14.00,2013-08-31 19:10:00,
2013-08-31 15:15:00,86.7,51.6,29.50,SW,227,2.2,3.1,30,0.00,,,0.00,VWS V14.00,2013-08-31 19:15:00,
2013-08-31 15:20:00,86.7,51.6,29.50,WSW,247,6.3,6.3,30,0.00,,,0.00,VWS V14.00,2013-08-31 19:20:00,
2013-08-31 15:25:00,86.9,51.8,29.50,SW,219,2.2,3.6,30,0.00,,,0.00,VWS V14.00,2013-08-31 19:25:00,
2013-08-31 15:30:00,86.9,51.8,29.50,SSW,199,3.1,3.1,30,0.00,,,0.00,VWS V14.00,2013-08-31 19:30:00,
2013-08-31 15:35:00,86.9,51.8,29.50,WSW,257,2.2,3.6,30,0.00,,,0.00,VWS V14.00,2013-08-31 19:35:00,
2013-08-31 15:40:00,86.9,51.8,29.50,East,99,2.7,2.7,30,0.00,,,0.00,VWS V14.00,2013-08-31 19:40:00,
2013-08-31 15:45:00,87.1,51.9,29.50,SSE,166,3.1,5.4,30,0.00,,,0.00,VWS V14.00,2013-08-31 19:45:00,
2013-08-31 15:50:00,86.9,51.8,29.50,West,272,5.4,5.4,30,0.00,,,0.00,VWS V14.00,2013-08-31 19:50:00,
2013-08-31 15:55:00,86.7,51.6,29.50,West,275,0.0,3.6,30,0.00,,,0.00,VWS V14.00,2013-08-31 19:55:00,
2013-08-31 16:00:00,86.5,51.5,29.50,East,92,4.9,4.9,30,0.00,,,0.00,VWS V14.00,2013-08-31 20:00:00,
2013-08-31 16:05:00,86.5,51.5,29.50,WNW,283,3.1,3.1,30,0.00,,,0.00,VWS V14.00,2013-08-31 20:05:00,
2013-08-31 16:10:00,86.4,51.3,29.47,North,1,2.7,3.1,30,0.00,,,0.00,VWS V14.00,2013-08-31 20:10:00,
2013-08-31 16:15:00,86.2,51.1,29.47,WSW,239,2.2,4.9,30,0.00,,,0.00,VWS V14.00,2013-08-31 20:15:00,
2013-08-31 16:20:00,86.2,51.1,29.47,ENE,77,0.0,0.0,30,0.00,,,0.00,VWS V14.00,2013-08-31 20:20:00,
2013-08-31 16:25:00,86.4,51.3,29.47,SW,236,2.7,3.1,30,0.00,,,0.00,VWS V14.00,2013-08-31 20:25:00,
2013-08-31 16:30:00,86.4,51.3,29.47,SSW,201,0.0,3.1,30,0.00,,,0.00,VWS V14.00,2013-08-31 20:30:00,
2013-08-31 16:35:00,86.5,51.5,29.47,WSW,239,4.0,4.0,30,0.00,,,0.00,VWS V14.00,2013-08-31 20:35:00,
2013-08-31 16:40:00,86.5,51.5,29.47,SW,236,4.0,4.5,30,0.00,,,0.00,VWS V14.00,2013-08-31 20:40:00,
2013-08-31 16:45:00,86.5,51.5,29.47,WSW,258,4.0,5.4,30,0.00,,,0.00,VWS V14.00,2013-08-31 20:45:00,
2013-08-31 16:50:00,86.4,51.3,29.47,SW,227,3.6,3.6,30,0.00,,,0.00,VWS V14.00,2013-08-31 20:50:00,
2013-08-31 16:55:00,86.4,51.3,29.47,North,350,4.0,4.0,30,0.00,,,0.00,VWS V14.00,2013-08-31 20:55:00,
2013-08-31 17:00:00,86.4,51.3,29.47,North,357,4.0,4.0,30,0.00,,,0.00,VWS V14.00,2013-08-31 21:00:00,
2013-08-31 17:05:00,86.4,51.3,29.47,ESE,120,3.1,4.0,30,0.00,,,0.00,VWS V14.00,2013-08-31 21:05:00,
2013-08-31 17:10:00,86.4,51.3,29.47,WSW,239,4.0,5.8,30,0.00,,,0.00,VWS V14.00,2013-08-31 21:10:00,
2013-08-31 17:15:00,86.2,51.1,29.47,SW,219,4.0,4.0,30,0.00,,,0.00,VWS V14.00,2013-08-31 21:15:00,
2013-08-31 17:20:00,86.0,51.0,29.47,NNW,339,3.1,3.6,30,0.00,,,0.00,VWS V14.00,2013-08-31 21:20:00,
2013-08-31 17:25:00,85.8,51.7,29.47,WSW,254,4.0,4.9,31,0.00,,,0.00,VWS V14.00,2013-08-31 21:25:00,
2013-08-31 17:30:00,85.8,51.7,29.47,SSE,162,0.0,4.9,31,0.00,,,0.00,VWS V14.00,2013-08-31 21:30:00,
2013-08-31 17:35:00,85.6,51.6,29.47,North,3,5.4,5.4,31,0.00,,,0.00,VWS V14.00,2013-08-31 21:35:00,
2013-08-31 17:40:00,85.3,51.2,29.47,West,270,5.4,5.4,31,0.00,,,0.00,VWS V14.00,2013-08-31 21:40:00,
2013-08-31 17:45:00,85.1,51.1,29.47,West,264,3.1,4.9,31,0.00,,,0.00,VWS V14.00,2013-08-31 21:45:00,
2013-08-31 17:50:00,84.9,50.9,29.47,West,267,3.1,3.1,31,0.00,,,0.00,VWS V14.00,2013-08-31 21:50:00,
2013-08-31 17:55:00,84.9,50.9,29.47,WSW,240,0.0,2.7,31,0.00,,,0.00,VWS V14.00,2013-08-31 21:55:00,
2013-08-31 18:00:00,84.7,50.8,29.47,SW,226,2.2,3.1,31,0.00,,,0.00,VWS V14.00,2013-08-31 22:00:00,
2013-08-31 18:05:00,84.6,50.6,29.47,West,274,2.7,3.1,31,0.00,,,0.00,VWS V14.00,2013-08-31 22:05:00,
2013-08-31 18:10:00,84.4,50.5,29.47,WSW,238,0.0,0.0,31,0.00,,,0.00,VWS V14.00,2013-08-31 22:10:00,
2013-08-31 18:15:00,84.0,51.0,29.47,West,277,2.2,2.2,32,0.00,,,0.00,VWS V14.00,2013-08-31 22:15:00,
2013-08-31 18:20:00,83.7,50.7,29.47,West,261,0.0,0.0,32,0.00,,,0.00,VWS V14.00,2013-08-31 22:20:00,
2013-08-31 18:25:00,83.5,50.5,29.47,SW,223,0.0,0.0,32,0.00,,,0.00,VWS V14.00,2013-08-31 22:25:00,
2013-08-31 18:30:00,82.9,50.1,29.47,SW,223,0.0,0.0,32,0.00,,,0.00,VWS V14.00,2013-08-31 22:30:00,
2013-08-31 18:35:00,82.8,50.8,29.47,SW,223,0.0,0.0,33,0.00,,,0.00,VWS V14.00,2013-08-31 22:35:00,
2013-08-31 18:40:00,82.6,50.6,29.47,SW,223,0.0,0.0,33,0.00,,,0.00,VWS V14.00,2013-08-31 22:40:00,
2013-08-31 18:45:00,82.4,50.4,29.47,SW,223,0.0,0.0,33,0.00,,,0.00,VWS V14.00,2013-08-31 22:45:00,
2013-08-31 18:50:00,81.9,51.5,29.47,SW,223,0.0,0.0,35,0.00,,,0.00,VWS V14.00,2013-08-31 22:50:00,
2013-08-31 18:55:00,81.3,51.1,29.47,SW,223,0.0,0.0,35,0.00,,,0.00,VWS V14.00,2013-08-31 22:55:00,
2013-08-31 19:00:00,81.3,51.1,29.47,SW,223,0.0,0.0,35,0.00,,,0.00,VWS V14.00,2013-08-31 23:00:00,
2013-08-31 19:05:00,81.3,51.1,29.47,SW,223,0.0,0.0,35,0.00,,,0.00,VWS V14.00,2013-08-31 23:05:00,
2013-08-31 19:10:00,80.2,53.8,29.50,SW,223,0.0,0.0,40,0.00,,,0.00,VWS V14.00,2013-08-31 23:10:00,
2013-08-31 19:15:00,79.9,53.4,29.50,SW,223,0.0,0.0,40,0.00,,,0.00,VWS V14.00,2013-08-31 23:15:00,
2013-08-31 19:20:00,79.9,52.7,29.50,SW,223,0.0,0.0,39,0.00,,,0.00,VWS V14.00,2013-08-31 23:20:00,
2013-08-31 19:25:00,79.9,52.7,29.47,SW,223,0.0,0.0,39,0.00,,,0.00,VWS V14.00,2013-08-31 23:25:00,
2013-08-31 19:30:00,79.9,52.7,29.47,SW,223,0.0,0.0,39,0.00,,,0.00,VWS V14.00,2013-08-31 23:30:00,
2013-08-31 19:35:00,78.8,53.8,29.47,SW,223,0.0,0.0,42,0.00,,,0.00,VWS V14.00,2013-08-31 23:35:00,
2013-08-31 19:40:00,78.4,53.5,29.47,SW,223,0.0,0.0,42,0.00,,,0.00,VWS V14.00,2013-08-31 23:40:00,
2013-08-31 19:45:00,78.3,53.3,29.47,SW,223,0.0,0.0,42,0.00,,,0.00,VWS V14.00,2013-08-31 23:45:00,
2013-08-31 19:49:00,78.1,53.8,29.47,SW,223,0.0,0.0,43,0.00,,,0.00,VWS V14.00,2013-08-31 23:49:00,
2013-08-31 19:54:00,77.9,53.6,29.47,SW,223,0.0,0.0,43,0.00,,,0.00,VWS V14.00,2013-08-31 23:54:00,
2013-08-31 19:59:00,77.7,53.5,29.47,SW,223,0.0,0.0,43,0.00,,,0.00,VWS V14.00,2013-08-31 23:59:00,
2013-08-31 20:04:00,77.4,53.1,29.47,SW,223,0.0,0.0,43,0.00,,,0.00,VWS V14.00,2013-09-01 00:04:00,
2013-08-31 20:09:00,77.2,53.0,29.47,SW,223,0.0,0.0,43,0.00,,,0.00,VWS V14.00,2013-09-01 00:09:00,
2013-08-31 20:14:00,77.2,53.6,29.47,SW,223,0.0,0.0,44,0.00,,,0.00,VWS V14.00,2013-09-01 00:14:00,
2013-08-31 20:19:00,77.0,53.4,29.47,SW,223,0.0,0.0,44,0.00,,,0.00,VWS V14.00,2013-09-01 00:19:00,
2013-08-31 20:24:00,76.6,53.1,29.47,SW,223,0.0,0.0,44,0.00,,,0.00,VWS V14.00,2013-09-01 00:24:00,
2013-08-31 20:29:00,76.5,54.2,29.47,SW,223,0.0,0.0,46,0.00,,,0.00,VWS V14.00,2013-09-01 00:29:00,
2013-08-31 20:34:00,76.3,54.0,29.47,SW,223,0.0,0.0,46,0.00,,,0.00,VWS V14.00,2013-09-01 00:34:00,
2013-08-31 20:39:00,76.1,54.4,29.50,SW,223,0.0,0.0,47,0.00,,,0.00,VWS V14.00,2013-09-01 00:39:00,
2013-08-31 20:44:00,75.9,54.8,29.50,SW,223,0.0,0.0,48,0.00,,,0.00,VWS V14.00,2013-09-01 00:44:00,
2013-08-31 20:49:00,75.7,55.2,29.50,SW,223,0.0,0.0,49,0.00,,,0.00,VWS V14.00,2013-09-01 00:49:00,
2013-08-31 20:54:00,75.6,55.1,29.50,SW,223,0.0,0.0,49,0.00,,,0.00,VWS V14.00,2013-09-01 00:54:00,
2013-08-31 20:59:00,75.6,55.1,29.50,SW,223,0.0,0.0,49,0.00,,,0.00,VWS V14.00,2013-09-01 00:59:00,
2013-08-31 21:04:00,75.4,54.9,29.50,SW,223,0.0,0.0,49,0.00,,,0.00,VWS V14.00,2013-09-01 01:04:00,
2013-08-31 21:09:00,75.4,54.9,29.50,SW,223,0.0,0.0,49,0.00,,,0.00,VWS V14.00,2013-09-01 01:09:00,
2013-08-31 21:14:00,75.2,55.3,29.50,SW,223,0.0,0.0,50,0.00,,,0.00,VWS V14.00,2013-09-01 01:14:00,
2013-08-31 21:19:00,75.2,55.3,29.50,SW,223,0.0,0.0,50,0.00,,,0.00,VWS V14.00,2013-09-01 01:19:00,
2013-08-31 21:24:00,75.0,56.2,29.50,SW,223,0.0,0.0,52,0.00,,,0.00,VWS V14.00,2013-09-01 01:24:00,
2013-08-31 21:29:00,74.8,56.0,29.50,SW,223,0.0,0.0,52,0.00,,,0.00,VWS V14.00,2013-09-01 01:29:00,
2013-08-31 21:34:00,74.8,56.6,29.50,SW,223,0.0,0.0,53,0.00,,,0.00,VWS V14.00,2013-09-01 01:34:00,
2013-08-31 21:39:00,74.8,56.6,29.50,SW,223,0.0,0.0,53,0.00,,,0.00,VWS V14.00,2013-09-01 01:39:00,
2013-08-31 21:44:00,74.8,56.6,29.50,SW,223,0.0,0.0,53,0.00,,,0.00,VWS V14.00,2013-09-01 01:44:00,
2013-08-31 21:49:00,74.8,56.6,29.50,SW,223,0.0,0.0,53,0.00,,,0.00,VWS V14.00,2013-09-01 01:49:00,
2013-08-31 21:54:00,75.0,56.8,29.50,SW,223,0.0,0.0,53,0.00,,,0.00,VWS V14.00,2013-09-01 01:54:00,
2013-08-31 21:59:00,75.0,56.8,29.50,SW,223,0.0,0.0,53,0.00,,,0.00,VWS V14.00,2013-09-01 01:59:00,
2013-08-31 22:04:00,75.0,56.8,29.50,SW,223,0.0,0.0,53,0.00,,,0.00,VWS V14.00,2013-09-01 02:04:00,
2013-08-31 22:09:00,75.0,57.3,29.50,SW,223,0.0,0.0,54,0.00,,,0.00,VWS V14.00,2013-09-01 02:09:00,
2013-08-31 22:14:00,74.8,56.6,29.50,SW,223,0.0,0.0,53,0.00,,,0.00,VWS V14.00,2013-09-01 02:14:00,
2013-08-31 22:19:00,74.8,57.6,29.50,NW,309,0.0,0.0,55,0.00,,,0.00,VWS V14.00,2013-09-01 02:19:00,
2013-08-31 22:24:00,74.5,57.3,29.50,WSW,242,3.6,3.6,55,0.00,,,0.00,VWS V14.00,2013-09-01 02:24:00,
2013-08-31 22:29:00,74.3,57.1,29.50,WSW,253,0.0,0.0,55,0.00,,,0.00,VWS V14.00,2013-09-01 02:29:00,
2013-08-31 22:34:00,74.1,57.4,29.50,WSW,252,0.0,0.0,56,0.00,,,0.00,VWS V14.00,2013-09-01 02:34:00,
2013-08-31 22:39:00,74.1,57.4,29.50,WSW,252,0.0,0.0,56,0.00,,,0.00,VWS V14.00,2013-09-01 02:39:00,
2013-08-31 22:44:00,74.1,56.9,29.50,WSW,252,0.0,0.0,55,0.00,,,0.00,VWS V14.00,2013-09-01 02:44:00,
2013-08-31 22:49:00,74.3,57.1,29.50,WSW,252,0.0,0.0,55,0.00,,,0.00,VWS V14.00,2013-09-01 02:49:00,
2013-08-31 22:54:00,74.3,57.1,29.50,WSW,252,0.0,0.0,55,0.00,,,0.00,VWS V14.00,2013-09-01 02:54:00,
2013-08-31 22:59:00,74.3,57.1,29.50,WSW,252,0.0,0.0,55,0.00,,,0.00,VWS V14.00,2013-09-01 02:59:00,
2013-08-31 23:04:00,74.1,56.9,29.50,WSW,252,0.0,0.0,55,0.00,,,0.00,VWS V14.00,2013-09-01 03:04:00,
2013-08-31 23:09:00,74.1,56.9,29.50,WSW,252,0.0,0.0,55,0.00,,,0.00,VWS V14.00,2013-09-01 03:09:00,
2013-08-31 23:14:00,74.1,56.9,29.50,WSW,252,0.0,0.0,55,0.00,,,0.00,VWS V14.00,2013-09-01 03:14:00,
2013-08-31 23:19:00,73.9,56.8,29.50,WSW,252,0.0,0.0,55,0.00,,,0.00,VWS V14.00,2013-09-01 03:19:00,
2013-08-31 23:24:00,73.9,56.8,29.50,WSW,252,0.0,0.0,55,0.00,,,0.00,VWS V14.00,2013-09-01 03:24:00,
2013-08-31 23:29:00,73.8,57.1,29.50,WSW,252,0.0,0.0,56,0.00,,,0.00,VWS V14.00,2013-09-01 03:29:00,
2013-08-31 23:34:00,73.8,57.1,29.50,WSW,252,0.0,0.0,56,0.00,,,0.00,VWS V14.00,2013-09-01 03:34:00,
2013-08-31 23:39:00,73.8,57.1,29.50,WSW,252,0.0,0.0,56,0.00,,,0.00,VWS V14.00,2013-09-01 03:39:00,
2013-08-31 23:44:00,73.6,57.4,29.50,WSW,252,0.0,0.0,57,0.00,,,0.00,VWS V14.00,2013-09-01 03:44:00,
2013-08-31 23:49:00,73.6,57.4,29.50,WSW,252,0.0,0.0,57,0.00,,,0.00,VWS V14.00,2013-09-01 03:49:00,
2013-08-31 23:54:00,73.4,57.7,29.50,WSW,252,0.0,0.0,58,0.00,,,0.00,VWS V14.00,2013-09-01 03:54:00,
2013-08-31 23:59:00,73.4,57.7,29.50,WSW,251,0.0,0.0,58,0.00,,,0.00,VWS V14.00,2013-09-01 03:59:00,